Time,TemperatureF,DewpointF,PressureIn,WindDirection,WindDirectionDegrees,WindSpeedMPH,WindSpeedGustMPH,Humidity,HourlyPrecipIn,Conditions,Clouds,dailyrainin,SoftwareType,DateUTC
2013-02-26 00:01:00,36.0,26.0,30.17,NW,322,0.0,0.0,68,0.00,,,0.00,,2013-02-26 05:01:00,
2013-02-26 00:12:00,35.0,26.0,30.18,NW,322,0.0,0.0,70,0.00,,,0.00,,2013-02-26 05:12:00,
2013-02-26 00:22:00,35.0,26.0,30.18,NW,322,0.0,0.0,70,0.00,,,0.00,,2013-02-26 05:22:00,
2013-02-26 00:32:00,34.0,26.0,30.18,NW,322,0.0,0.0,72,0.00,,,0.00,,2013-02-26 05:32:00,
2013-02-26 00:43:00,34.0,26.0,30.18,NW,322,0.0,0.0,72,0.00,,,0.00,,2013-02-26 05:43:00,
2013-02-26 00:52:00,34.0,26.0,30.17,NW,322,0.0,0.0,73,0.00,,,0.00,,2013-02-26 05:52:00,
2013-02-26 01:02:00,34.0,26.0,30.16,NW,322,0.0,0.0,73,0.00,,,0.00,,2013-02-26 06:02:00,
2013-02-26 01:11:00,34.0,26.0,30.16,NW,322,0.0,0.0,73,0.00,,,0.00,,2013-02-26 06:11:00,
2013-02-26 01:21:00,33.0,26.0,30.16,NW,322,0.0,0.0,74,0.00,,,0.00,,2013-02-26 06:21:00,
2013-02-26 01:32:00,32.0,26.0,30.16,NW,322,0.0,0.0,77,0.00,,,0.00,,2013-02-26 06:32:00,
2013-02-26 01:42:00,32.0,26.0,30.16,NW,322,0.0,0.0,77,0.00,,,0.00,,2013-02-26 06:42:00,
2013-02-26 01:52:00,32.0,26.0,30.18,NW,322,0.0,0.0,79,0.00,,,0.00,,2013-02-26 06:52:00,
2013-02-26 02:01:00,31.0,26.0,30.21,NW,322,0.0,0.0,81,0.00,,,0.00,,2013-02-26 07:01:00,
2013-02-26 02:11:00,31.0,26.0,30.21,NW,322,0.0,0.0,81,0.00,,,0.00,,2013-02-26 07:11:00,
2013-02-26 02:22:00,31.0,26.0,30.20,NW,322,0.0,0.0,82,0.00,,,0.00,,2013-02-26 07:22:00,
2013-02-26 02:32:00,31.0,26.0,30.20,NW,322,0.0,0.0,82,0.00,,,0.00,,2013-02-26 07:32:00,
2013-02-26 02:42:00,31.0,26.0,30.20,NW,322,0.0,0.0,82,0.00,,,0.00,,2013-02-26 07:42:00,
2013-02-26 02:51:00,31.0,26.0,30.20,NW,322,0.0,0.0,83,0.00,,,0.00,,2013-02-26 07:51:00,
2013-02-26 03:02:00,31.0,27.0,30.21,NW,322,0.0,0.0,84,0.00,,,0.00,,2013-02-26 08:02:00,
2013-02-26 03:11:00,30.0,26.0,30.21,NW,322,0.0,0.0,85,0.00,,,0.00,,2013-02-26 08:11:00,
2013-02-26 03:21:00,30.0,26.0,30.21,NW,322,0.0,0.0,85,0.00,,,0.00,,2013-02-26 08:21:00,
2013-02-26 03:32:00,30.0,26.0,30.20,NW,322,0.0,0.0,86,0.00,,,0.00,,2013-02-26 08:32:00,
2013-02-26 03:42:00,30.0,26.0,30.20,NW,322,0.0,0.0,86,0.00,,,0.00,,2013-02-26 08:42:00,
2013-02-26 03:52:00,30.0,27.0,30.21,NW,322,0.0,0.0,87,0.00,,,0.00,,2013-02-26 08:52:00,
2013-02-26 04:02:00,30.0,27.0,30.20,NW,322,0.0,0.0,87,0.00,,,0.00,,2013-02-26 09:02:00,
2013-02-26 04:11:00,30.0,27.0,30.20,NW,322,0.0,0.0,87,0.00,,,0.00,,2013-02-26 09:11:00,
2013-02-26 04:21:00,29.0,26.0,30.20,NW,322,0.0,0.0,88,0.00,,,0.00,,2013-02-26 09:21:00,
2013-02-26 04:32:00,29.0,26.0,30.21,NW,322,0.0,0.0,89,0.00,,,0.00,,2013-02-26 09:32:00,
2013-02-26 04:43:00,29.0,26.0,30.21,NW,322,0.0,0.0,89,0.00,,,0.00,,2013-02-26 09:43:00,
2013-02-26 04:51:00,28.0,25.0,30.21,NW,322,0.0,0.0,89,0.00,,,0.00,,2013-02-26 09:51:00,
2013-02-26 05:01:00,28.0,25.0,30.21,NW,322,0.0,0.0,90,0.00,,,0.00,,2013-02-26 10:01:00,
2013-02-26 05:11:00,28.0,25.0,30.21,NW,322,0.0,0.0,90,0.00,,,0.00,,2013-02-26 10:11:00,
2013-02-26 05:21:00,28.0,25.0,30.21,NW,322,0.0,0.0,90,0.00,,,0.00,,2013-02-26 10:21:00,
2013-02-26 05:31:00,28.0,26.0,30.21,NW,322,0.0,0.0,91,0.00,,,0.00,,2013-02-26 10:31:00,
2013-02-26 05:42:00,28.0,26.0,30.21,NW,322,0.0,0.0,91,0.00,,,0.00,,2013-02-26 10:42:00,
2013-02-26 05:52:00,28.0,26.0,30.21,NW,322,0.0,0.0,92,0.00,,,0.00,,2013-02-26 10:52:00,
2013-02-26 06:01:00,28.0,26.0,30.21,NW,322,0.0,0.0,92,0.00,,,0.00,,2013-02-26 11:01:00,
2013-02-26 06:12:00,28.0,26.0,30.21,NW,322,0.0,0.0,92,0.00,,,0.00,,2013-02-26 11:12:00,
2013-02-26 06:22:00,28.0,26.0,30.20,NW,322,0.0,0.0,92,0.00,,,0.00,,2013-02-26 11:22:00,
2013-02-26 06:32:00,29.0,27.0,30.20,NW,322,0.0,0.0,93,0.00,,,0.00,,2013-02-26 11:32:00,
2013-02-26 06:42:00,29.0,27.0,30.21,NW,322,0.0,0.0,93,0.00,,,0.00,,2013-02-26 11:42:00,
2013-02-26 06:52:00,29.0,27.0,30.21,NW,322,0.0,0.0,93,0.00,,,0.00,,2013-02-26 11:52:00,
2013-02-26 07:01:00,30.0,28.0,30.21,NW,322,0.0,0.0,94,0.00,,,0.00,,2013-02-26 12:01:00,
2013-02-26 07:11:00,30.0,28.0,30.21,NW,322,0.0,0.0,94,0.00,,,0.00,,2013-02-26 12:11:00,
2013-02-26 07:22:00,31.0,30.0,30.21,NW,322,0.0,0.0,95,0.00,,,0.00,,2013-02-26 12:22:00,
2013-02-26 07:32:00,32.0,31.0,30.22,NW,322,0.0,0.0,95,0.00,,,0.00,,2013-02-26 12:32:00,
2013-02-26 07:42:00,32.0,31.0,30.22,NW,322,0.0,0.0,95,0.00,,,0.00,,2013-02-26 12:42:00,
2013-02-26 07:52:00,34.0,33.0,30.22,NW,322,0.0,1.0,95,0.00,,,0.00,,2013-02-26 12:52:00,
2013-02-26 08:02:00,36.0,34.0,30.24,NW,322,0.0,2.0,93,0.00,,,0.00,,2013-02-26 13:02:00,
2013-02-26 08:11:00,37.0,33.0,30.24,NW,322,1.0,3.0,86,0.00,,,0.00,,2013-02-26 13:11:00,
2013-02-26 08:21:00,37.0,33.0,30.24,NW,322,1.0,3.0,86,0.00,,,0.00,,2013-02-26 13:21:00,
2013-02-26 08:32:00,38.0,33.0,30.24,NW,322,0.0,2.0,81,0.00,,,0.00,,2013-02-26 13:32:00,
2013-02-26 08:42:00,38.0,33.0,30.24,NW,322,0.0,2.0,81,0.00,,,0.00,,2013-02-26 13:42:00,
2013-02-26 08:51:00,39.0,32.0,30.25,NW,322,0.0,5.0,77,0.00,,,0.00,,2013-02-26 13:51:00,
2013-02-26 09:01:00,40.0,33.0,30.26,NNW,337,1.0,3.0,75,0.00,,,0.00,,2013-02-26 14:01:00,
2013-02-26 09:11:00,40.0,33.0,30.26,NNW,337,1.0,3.0,75,0.00,,,0.00,,2013-02-26 14:11:00,
2013-02-26 09:21:00,41.0,33.0,30.26,North,354,0.0,5.0,74,0.00,,,0.00,,2013-02-26 14:21:00,
2013-02-26 09:32:00,41.0,33.0,30.26,North,356,1.0,5.0,73,0.00,,,0.00,,2013-02-26 14:32:00,
2013-02-26 09:42:00,41.0,33.0,30.26,North,356,1.0,5.0,73,0.00,,,0.00,,2013-02-26 14:42:00,
2013-02-26 09:52:00,41.0,32.0,30.25,NNE,18,4.0,8.0,70,0.00,,,0.00,,2013-02-26 14:52:00,
2013-02-26 10:02:00,41.0,32.0,30.24,NE,51,2.0,8.0,69,0.00,,,0.00,,2013-02-26 15:02:00,
2013-02-26 10:11:00,41.0,32.0,30.24,NE,51,2.0,8.0,69,0.00,,,0.00,,2013-02-26 15:11:00,
2013-02-26 10:22:00,42.0,31.0,30.23,SE,126,5.0,10.0,66,0.00,,,0.00,,2013-02-26 15:22:00,
2013-02-26 10:32:00,42.0,31.0,30.23,SE,132,3.0,7.0,66,0.00,,,0.00,,2013-02-26 15:32:00,
2013-02-26 10:42:00,42.0,31.0,30.23,SE,132,3.0,7.0,66,0.00,,,0.00,,2013-02-26 15:42:00,
2013-02-26 10:52:00,42.0,31.0,30.23,ESE,123,3.0,8.0,65,0.00,,,0.00,,2013-02-26 15:52:00,
2013-02-26 11:01:00,42.0,31.0,30.24,SE,127,4.0,12.0,64,0.00,,,0.00,,2013-02-26 16:01:00,
2013-02-26 11:11:00,42.0,31.0,30.24,SE,127,4.0,12.0,64,0.00,,,0.00,,2013-02-26 16:11:00,
2013-02-26 11:22:00,42.0,31.0,30.24,SE,138,2.0,7.0,64,0.00,,,0.00,,2013-02-26 16:22:00,
2013-02-26 11:32:00,42.0,31.0,30.24,SE,143,2.0,12.0,64,0.00,,,0.00,,2013-02-26 16:32:00,
2013-02-26 11:42:00,42.0,31.0,30.24,SE,143,2.0,12.0,64,0.00,,,0.00,,2013-02-26 16:42:00,
2013-02-26 11:52:00,43.0,31.0,30.24,SSE,151,3.0,8.0,62,0.00,,,0.00,,2013-02-26 16:52:00,
2013-02-26 12:01:00,43.0,30.0,30.23,SE,143,6.0,12.0,60,0.00,,,0.00,,2013-02-26 17:01:00,
2013-02-26 12:11:00,43.0,30.0,30.22,SE,137,5.0,12.0,61,0.00,,,0.00,,2013-02-26 17:11:00,
2013-02-26 12:21:00,43.0,30.0,30.22,SE,137,5.0,12.0,61,0.00,,,0.00,,2013-02-26 17:21:00,
2013-02-26 12:32:00,43.0,31.0,30.21,ESE,120,7.0,13.0,62,0.00,,,0.00,,2013-02-26 17:32:00,
2013-02-26 12:42:00,43.0,31.0,30.21,ESE,120,7.0,13.0,62,0.00,,,0.00,,2013-02-26 17:42:00,
2013-02-26 12:52:00,43.0,32.0,30.21,SE,130,3.0,10.0,64,0.00,,,0.00,,2013-02-26 17:52:00,
2013-02-26 13:02:00,43.0,31.0,30.21,ESE,123,6.0,12.0,63,0.00,,,0.00,,2013-02-26 18:02:00,
2013-02-26 13:12:00,43.0,31.0,30.21,ESE,123,6.0,12.0,63,0.00,,,0.00,,2013-02-26 18:12:00,
2013-02-26 13:21:00,42.0,30.0,30.21,SE,136,2.0,10.0,62,0.00,,,0.00,,2013-02-26 18:21:00,
2013-02-26 13:32:00,42.0,30.0,30.21,East,93,6.0,10.0,61,0.00,,,0.00,,2013-02-26 18:32:00,
2013-02-26 13:42:00,42.0,30.0,30.21,East,93,6.0,10.0,61,0.00,,,0.00,,2013-02-26 18:42:00,
2013-02-26 13:52:00,43.0,29.0,30.19,ESE,116,3.0,8.0,58,0.00,,,0.00,,2013-02-26 18:52:00,
2013-02-26 14:01:00,43.0,30.0,30.18,SE,131,5.0,12.0,59,0.00,,,0.00,,2013-02-26 19:01:00,
2013-02-26 14:11:00,43.0,30.0,30.18,SE,131,5.0,12.0,59,0.00,,,0.00,,2013-02-26 19:11:00,
2013-02-26 14:22:00,43.0,29.0,30.17,ESE,118,4.0,12.0,58,0.00,,,0.00,,2013-02-26 19:22:00,
2013-02-26 14:32:00,43.0,29.0,30.18,SE,132,5.0,9.0,57,0.00,,,0.00,,2013-02-26 19:32:00,
2013-02-26 14:42:00,43.0,29.0,30.18,SE,132,5.0,9.0,57,0.00,,,0.00,,2013-02-26 19:42:00,
2013-02-26 14:52:00,42.0,28.0,30.18,East,88,9.0,13.0,57,0.00,,,0.00,,2013-02-26 19:52:00,
2013-02-26 15:01:00,42.0,28.0,30.18,ESE,119,5.0,12.0,57,0.00,,,0.00,,2013-02-26 20:01:00,
2013-02-26 15:11:00,42.0,28.0,30.18,ESE,119,5.0,12.0,57,0.00,,,0.00,,2013-02-26 20:11:00,
2013-02-26 15:21:00,42.0,29.0,30.16,ENE,57,4.0,12.0,59,0.00,,,0.00,,2013-02-26 20:21:00,
2013-02-26 15:32:00,42.0,30.0,30.16,East,92,3.0,13.0,62,0.00,,,0.00,,2013-02-26 20:32:00,
2013-02-26 15:41:00,42.0,30.0,30.16,East,92,3.0,13.0,62,0.00,,,0.00,,2013-02-26 20:41:00,
2013-02-26 15:51:00,41.0,29.0,30.15,East,98,3.0,13.0,61,0.00,,,0.00,,2013-02-26 20:51:00,
2013-02-26 16:01:00,41.0,30.0,30.14,SE,136,1.0,8.0,64,0.00,,,0.00,,2013-02-26 21:01:00,
2013-02-26 16:11:00,41.0,30.0,30.14,SE,136,1.0,8.0,64,0.00,,,0.00,,2013-02-26 21:11:00,
2013-02-26 16:21:00,41.0,30.0,30.15,ESE,121,4.0,12.0,65,0.00,,,0.00,,2013-02-26 21:21:00,
2013-02-26 16:31:00,40.0,29.0,30.15,ESE,105,3.0,12.0,65,0.00,,,0.00,,2013-02-26 21:31:00,
2013-02-26 16:41:00,40.0,29.0,30.15,ESE,105,3.0,12.0,65,0.00,,,0.00,,2013-02-26 21:41:00,
2013-02-26 16:51:00,40.0,30.0,30.14,ESE,117,7.0,14.0,67,0.00,,,0.00,,2013-02-26 21:51:00,
2013-02-26 17:01:00,40.0,30.0,30.13,ESE,111,6.0,16.0,68,0.00,,,0.00,,2013-02-26 22:01:00,
2013-02-26 17:11:00,40.0,30.0,30.14,East,87,7.0,16.0,66,0.00,,,0.00,,2013-02-26 22:11:00,
2013-02-26 17:21:00,40.0,30.0,30.14,East,87,7.0,16.0,66,0.00,,,0.00,,2013-02-26 22:21:00,
2013-02-26 17:32:00,39.0,29.0,30.12,East,94,4.0,12.0,67,0.00,,,0.00,,2013-02-26 22:32:00,
2013-02-26 17:41:00,39.0,29.0,30.12,East,94,4.0,12.0,67,0.00,,,0.00,,2013-02-26 22:41:00,
2013-02-26 17:51:00,39.0,29.0,30.11,ENE,77,4.0,10.0,67,0.00,,,0.00,,2013-02-26 22:51:00,
2013-02-26 18:01:00,39.0,29.0,30.10,ENE,71,5.0,12.0,67,0.00,,,0.00,,2013-02-26 23:01:00,
2013-02-26 18:11:00,39.0,29.0,30.10,ENE,71,5.0,12.0,67,0.00,,,0.00,,2013-02-26 23:11:00,
2013-02-26 18:21:00,39.0,28.0,30.11,East,85,5.0,12.0,64,0.00,,,0.00,,2013-02-26 23:21:00,
2013-02-26 18:31:00,39.0,28.0,30.10,East,97,2.0,8.0,64,0.00,,,0.00,,2013-02-26 23:31:00,
2013-02-26 18:42:00,39.0,28.0,30.10,East,97,2.0,8.0,64,0.00,,,0.00,,2013-02-26 23:42:00,
2013-02-26 18:52:00,39.0,27.0,30.10,East,87,4.0,13.0,63,0.00,,,0.00,,2013-02-26 23:52:00,
2013-02-26 19:01:00,39.0,27.0,30.10,ENE,72,6.0,12.0,63,0.00,,,0.00,,2013-02-27 00:01:00,
2013-02-26 19:11:00,39.0,27.0,30.10,ENE,72,6.0,12.0,63,0.00,,,0.00,,2013-02-27 00:11:00,
2013-02-26 19:22:00,39.0,28.0,30.09,ENE,77,2.0,12.0,65,0.00,,,0.00,,2013-02-27 00:22:00,
2013-02-26 19:32:00,38.0,29.0,30.09,East,88,6.0,13.0,70,0.00,,,0.00,,2013-02-27 00:32:00,
2013-02-26 19:42:00,38.0,29.0,30.09,East,88,6.0,13.0,70,0.00,,,0.00,,2013-02-27 00:42:00,
2013-02-26 19:51:00,38.0,29.0,30.09,East,93,5.0,12.0,71,0.00,,,0.00,,2013-02-27 00:51:00,
2013-02-26 20:01:00,38.0,30.0,30.07,ENE,68,6.0,10.0,73,0.00,,,0.00,,2013-02-27 01:01:00,
2013-02-26 20:11:00,38.0,30.0,30.07,ENE,68,6.0,10.0,73,0.00,,,0.00,,2013-02-27 01:11:00,
2013-02-26 20:22:00,38.0,31.0,30.06,East,82,4.0,12.0,75,0.00,,,0.00,,2013-02-27 01:22:00,
2013-02-26 20:32:00,38.0,32.0,30.05,East,93,7.0,16.0,78,0.00,,,0.00,,2013-02-27 01:32:00,
2013-02-26 20:42:00,38.0,32.0,30.05,East,93,7.0,16.0,78,0.00,,,0.00,,2013-02-27 01:42:00,
2013-02-26 20:51:00,37.0,31.0,30.04,ENE,66,7.0,14.0,80,0.00,,,0.00,,2013-02-27 01:51:00,
2013-02-26 21:01:00,37.0,32.0,30.03,East,85,5.0,10.0,81,0.00,,,0.00,,2013-02-27 02:01:00,
2013-02-26 21:23:00,37.0,32.0,30.03,East,90,6.0,10.0,82,0.00,,,0.00,,2013-02-27 02:23:00,
2013-02-26 21:32:00,37.0,32.0,30.00,ENE,73,7.0,14.0,83,0.00,,,0.00,,2013-02-27 02:32:00,
2013-02-26 21:42:00,37.0,32.0,30.00,ENE,73,7.0,14.0,83,0.00,,,0.00,,2013-02-27 02:42:00,
2013-02-26 21:52:00,37.0,33.0,29.98,East,81,5.0,12.0,84,0.00,,,0.00,,2013-02-27 02:52:00,
2013-02-26 22:02:00,37.0,32.0,29.97,ENE,75,5.0,16.0,83,0.00,,,0.00,,2013-02-27 03:02:00,
2013-02-26 22:11:00,37.0,33.0,29.97,ENE,58,5.0,13.0,84,0.00,,,0.00,,2013-02-27 03:11:00,
2013-02-26 22:22:00,37.0,33.0,29.97,ENE,58,5.0,13.0,84,0.00,,,0.00,,2013-02-27 03:22:00,
2013-02-26 22:32:00,37.0,34.0,29.96,NE,49,6.0,15.0,88,0.00,,,0.00,,2013-02-27 03:32:00,
2013-02-26 22:42:00,37.0,34.0,29.96,NE,49,6.0,15.0,88,0.00,,,0.00,,2013-02-27 03:42:00,
2013-02-26 22:52:00,37.0,35.0,29.96,ENE,65,8.0,16.0,91,0.00,,,0.00,,2013-02-27 03:52:00,
2013-02-26 23:01:00,37.0,35.0,29.96,ENE,60,3.0,9.0,92,0.00,,,0.00,,2013-02-27 04:01:00,
2013-02-26 23:11:00,37.0,35.0,29.96,ENE,60,3.0,9.0,92,0.00,,,0.00,,2013-02-27 04:11:00,
2013-02-26 23:22:00,36.0,34.0,29.95,ENE,62,7.0,16.0,93,0.01,,,0.01,,2013-02-27 04:22:00,
2013-02-26 23:32:00,36.0,34.0,29.91,ENE,71,7.0,14.0,94,0.05,,,0.05,,2013-02-27 04:32:00,
2013-02-26 23:42:00,36.0,34.0,29.91,ENE,71,7.0,14.0,94,0.05,,,0.05,,2013-02-27 04:42:00,
2013-02-26 23:52:00,36.0,34.0,29.88,ENE,75,9.0,15.0,94,0.05,,,0.05,,2013-02-27 04:52:00,